Location: Unspecified
(0.0000°N, 0.0000°E)
Time: 09:07:11
(UTC+00:00)

Vanguard 1 Rocket - Pass Details

Date: 16 December 2017
Orbit: 656 x 4222 km, 34.3° (Epoch: 20 January)

Event Time Altitude Azimuth Distance (km) Brightness Sun altitude
Rises 19:13:46 0° 326° (NW) 5,641 11.6 -17.8°
Reaches altitude 10° 19:19:21 10° 345° (NNW) 5,293 11.2 -19.1°
Maximum altitude 19:29:35 18° 23° (NNE) 5,637 11.0 -21.4°
Enters shadow 19:32:55 17° 34° (NE) 5,945 11.0 -22.2°
